Regional Weather Roundup
Issued by NWS

Home | Current Version | Previous Version | Graphics & Text | Print | Product List | Glossary On
Versions: 1 2 3 4 5 6 7 8 9 10 11 12 13 14 15 16 17 18 19 20 21 22 23 24 25 26 27 28 29 30 31 32 33 34 35 36 37 38 39 40 41 42 43 44 45 46 47 48 49 50
000
ASUS43 KIND 290309
RWRIN

WEATHER ROUNDUP FOR INDIANA
NATIONAL WEATHER SERVICE INDIANAPOLIS IN
1100 PM EDT TUE MAR 28 2017

NOTE: "FAIR" INDICATES FEW OR NO CLOUDS BELOW 12,000 FEET WITH NO
SIGNIFICANT WEATHER AND/OR OBSTRUCTIONS TO VISIBILITY.

* - STATION DOES NOT REPORT WEATHER SUCH AS PRECIPITATION OR FOG.

+ - STATION NOT QUALITY CONTROLLED BY THE NATIONAL WEATHER SERVICE.
    USE DATA WITH CAUTION...ESPECIALLY DEWPOINT AND RELATIVE
    HUMIDITY OBSERVATIONS.

INZ001>003-010>013-019-020-290400-
NORTHWEST INDIANA

CITY           SKY/WX    TMP DP  RH WIND       PRES   REMARKS
GARY /AIRPORT/ CLOUDY    41  39  93 CALM      30.23R
KNOX *+        CLOUDY    41  30  65 N6        30.20R
LA PORTE +     CLOUDY    42  39  90 CALM      30.21R
MICHIGAN CITY+ CLOUDY    37  37 100 CALM      30.22R
MONTICELLO +   CLOUDY    44  41  91 N6        30.18S
RENSSELAER +   CLOUDY    43  41  93 N7        30.19S
VALPARAISO     CLOUDY    42  39  89 N5        30.21R

$$

LMZ046-743>745-290400-
SOUTHERN LAKE MICHIGAN

STATION/POSITION TIME  TEMP    WIND        PRES    WAVE
                       AIR SEA DIR/SP/G            HT
                 (UTC) (F)     (DEG/KT/KT) (MB)    (FT)
BURNS HARBOR     0240   39      50/  7/  8 1023.4R
MICHIGAN CITY    0240   38      30/  9/ 10   N/A

$$

INZ004-005-014>016-021>024-290400-
NORTH CENTRAL INDIANA

CITY           SKY/WX    TMP DP  RH WIND       PRES   REMARKS
GOSHEN         PTCLDY    43  37  79 NE7       30.20R
LOGANSPORT +   CLOUDY    46  41  81 NE5       30.18S
PERU/GRISSOM   CLOUDY    47  45  91 NE8       30.16R
ROCHESTER +    CLOUDY    48  43  81 E7        30.19R
SOUTH BEND     CLOUDY    42  39  89 N5        30.21R
WARSAW +       CLOUDY    45  37  76 NE7       30.19S

$$

INZ006>009-017-018-025>027-290400-
NORTHEAST INDIANA

CITY           SKY/WX    TMP DP  RH WIND       PRES   REMARKS
ANGOLA *+      CLEAR     39  37  93 NE5       30.19S
AUBURN +       CLOUDY    45  37  76 NE10      30.20R
FORT WAYNE     CLOUDY    47  40  76 NE12      30.18R
HUNTINGTON +   CLOUDY    47  43  87 NE5       30.17S
KENDALLVILLE + PTCLDY    42  38  87 E5        30.19R

$$

INZ028-029-035-036-043>045-051>053-290400-
WEST CENTRAL INDIANA

CITY           SKY/WX    TMP DP  RH WIND       PRES   REMARKS
CRAWFORDSVL +  CLOUDY    46  43  90 N6        30.15F
GREENCASTLE +  CLOUDY    46  43  87 NE6       30.15S
LAFAYETTE      CLOUDY    45  42  89 N9        30.17S
TERRE HAUTE    CLOUDY    50  43  77 NE7       30.14R

$$

INZ030>032-037>040-046>048-054>057-064-065-290400-
CENTRAL INDIANA

CITY           SKY/WX    TMP DP  RH WIND       PRES   REMARKS
CP ATTERBURY + CLOUDY    52  45  76 NE7       30.14F
FISHERS *+     CLOUDY    48  46  93 NE3       30.15
FRANKFORT +    CLOUDY    50  44  82 NE6       30.17F
GREENWOOD *+   CLOUDY    51  46  82 NE9       30.15S
INDIANAPOLIS   CLOUDY    50  44  80 NE9       30.14S
-EAGLE CREEK   CLOUDY    50  43  77 NE6       30.14S
KOKOMO +       CLOUDY    48  44  86 NE7       30.18R
MARION +       CLOUDY    47  45  91 NE6       30.17F
MT COMFORT *+  CLOUDY    48  45  87 NE8       30.16S
SHELBYVILLE    CLOUDY    53  46  77 N7        30.14S
ZIONSVILLE +   CLOUDY    47  43  86 N5        30.16F

$$

INZ033-034-041-042-049-050-058-059-290400-
EAST CENTRAL INDIANA

CITY           SKY/WX    TMP DP  RH WIND       PRES   REMARKS
MUNCIE         CLOUDY    49  46  90 E7        30.16R
RICHMOND +     CLOUDY    46  45  93 NE7       30.16R FOG

$$

INZ060-061-067>069-081>083-085>088-290400-
SOUTHWEST INDIANA

CITY           SKY/WX    TMP DP  RH WIND       PRES   REMARKS
EVANSVILLE     CLOUDY    54  50  86 CALM      30.09S
HUNTINGBURG *+ MOCLDY    55  50  83 NE7       30.10R
WASHINGTON +   CLOUDY    56  47  72 MISG      30.10F

$$

INZ062-063-066-070>080-084-089>092-290400-
SOUTH CENTRAL AND SOUTHEAST INDIANA

CITY           SKY/WX    TMP DP  RH WIND       PRES   REMARKS
BEDFORD +      CLOUDY    55  46  71 NE6       30.11S
BLOOMINGTON    CLOUDY    54  46  74 NE7       30.12S
MADISON *+     CLOUDY    54  46  76 N5        30.14S
NORTH VERNON + CLOUDY    54  52  94 NE6       30.14R
SEYMOUR +      CLOUDY    55  48  76 NE10      30.13R

$$





USA.gov is the U.S. government's official web portal to all federal, state and local government web resources and services.